Simultaneous Nadir Overpasses (SNOs) Predictions

Prediction of SNOs between GOES-17 and NPP Satellite Orbit:

Table of predicted SNOs for the next 14.0 days since TLE Epoch: 7/14/2024
Index Date Time (GOES-17) GOES-17 Lat,Lon NPP Lat,Lon Distance(km) Time Diff (sec)
1 07/14/2024 08:33:01 -0.01,-104.71 0.45,-106.63 219.23 80
2 07/15/2024 08:11:37 -0.01,-104.71 -0.57,-102.10 296.60 80
3 07/16/2024 20:33:36 0.01,-104.72 -0.62,-107.42 308.13 80
4 07/17/2024 20:17:32 0.01,-104.72 0.40,-102.89 207.73 80
5 07/19/2024 08:39:22 -0.01,-104.71 0.79,-108.17 394.55 80
6 07/20/2024 08:17:58 -0.01,-104.71 -0.23,-103.64 120.92 80
7 07/21/2024 20:39:56 0.01,-104.71 -0.94,-108.96 484.57 80
8 07/22/2024 20:23:53 0.01,-104.71 0.08,-104.44 31.13 80
9 07/25/2024 08:26:58 -0.01,-104.70 0.12,-105.18 54.93 80
10 07/26/2024 08:05:34 -0.00,-104.70 -0.90,-100.65 460.96 80
11 07/27/2024 20:27:33 0.01,-104.70 -0.26,-105.97 144.24 80
